Wind_Speed
3 4 10 13 14 18 18 19 21 18 13 13 14 15 14 21 26 29 32 26 25 28 24 27 29 32 32 29 29 31 35 32 33 30 29 27 24 22 20 19 18 16 14 15
3 12 11 8 14 16 18 18 19 16 19 21 21 26 18 16 19 27 29 30 27 24 27 32 31 32 35 34 31 32 35 34 34 29 29 27 26 23 23 22 22 20 20 19
6 14 16 8 11 16 18 19 18 13 15 21 16 25 23 18 28 29 34 32 30 30 31 33 32 37 36 36 35 35 37 34 33 32 29 29 26 26 25 26 25 23 21 20
10 5 8 10 16 14 16 16 17 18 11 10 8 20 25 22 23 26 34 38 33 28 29 33 33 33 40 40 36 36 37 35 34 32 33 30 29 30 30 29 27 25 22 18
7 12 14 17 16 9 11 13 15 16 15 13 16 11 15 19 25 24 25 40 40 32 33 36 38 40 40 40 40 38 36 37 34 34 34 33 34 33 32 31 28 24 20 15
21 16 12 11 12 11 10 9 12 15 13 13 20 15 21 17 24 24 24 35 36 32 33 31 36 40 42 44 41 39 38 38 36 35 37 40 36 36 36 32 26 22 19 14
16 6 5 8 7 9 11 8 4 6 7 12 16 16 25 17 25 27 25 32 34 31 35 40 41 42 44 43 42 39 38 36 37 37 39 37 39 40 36 32 25 16 14 12
8 8 4 5 6 6 8 6 5 8 9 12 9 6 8 3 12 22 26 37 47 45 43 41 38 42 45 41 44 41 39 38 39 40 41 41 41 34 27 20 21 20 15 14
6 8 9 9 4 2 3 6 4 6 15 11 10 11 10 4 5 11 21 29 35 40 42 46 41 41 42 48 43 39 39 39 40 40 39 35 26 26 28 28 22 17 16 13
4 11 7 3 4 13 5 3 5 4 6 12 9 8 9 11 16 14 16 25 27 33 33 45 47 39 45 45 39 36 38 38 36 32 30 28 26 29 30 26 22 20 15 13
10 6 7 11 5 10 3 4 4 4 7 5 7 4 2 9 13 16 10 17 26 31 35 40 44 49 46 41 33 37 33 32 29 25 24 28 32 30 26 25 21 17 17 15
4 5 6 18 13 3 3 9 5 5 4 5 2 3 5 9 12 12 5 3 20 30 35 41 43 43 40 36 37 33 31 28 28 32 32 33 32 27 25 20 18 17 16 15
7 3 7 6 2 4 6 5 8 10 6 4 3 3 6 7 5 4 10 12 15 28 31 37 37 37 34 30 27 27 27 30 32 34 32 28 28 25 22 20 19 17 14 13
7 4 8 10 15 15 11 17 17 4 5 7 4 6 12 13 9 7 7 16 17 21 25 29 30 30 29 29 34 34 38 33 34 33 31 29 24 22 19 19 18 17 14 11
5 6 6 13 18 15 15 13 13 3 6 4 6 7 12 13 7 5 7 13 18 20 21 25 29 30 30 34 38 37 35 32 31 31 28 25 23 22 21 20 18 15 13 11
5 4 7 8 6 12 7 10 14 8 6 6 8 5 8 16 8 7 7 11 13 16 22 25 27 33 42 41 35 32 31 30 30 30 27 24 23 22 20 18 15 13 10 8
5 6 5 4 13 15 1 13 10 6 13 8 5 5 10 12 12 13 7 8 11 14 18 23 31 36 36 35 34 31 29 29 30 27 24 24 22 20 18 15 13 11 9 7
6 8 3 5 9 4 5 7 5 2 13 14 10 10 7 8 13 18 14 8 7 13 18 25 32 32 30 29 28 28 29 28 27 25 24 23 21 19 17 14 12 10 8 5
11 4 4 3 5 6 2 6 5 5 7 8 12 10 4 5 10 15 15 8 6 4 9 17 25 27 26 25 24 24 25 25 25 23 21 20 18 17 16 13 10 7 6 3
6 9 5 2 3 2 2 6 7 3 5 16 17 12 11 10 4 5 14 5 7 7 6 12 21 24 24 24 22 22 22 24 23 21 20 20 18 15 14 9 8 5 3 3
2 2 5 4 3 5 4 17 7 2 5 19 17 15 17 6 4 6 5 7 10 10 10 12 16 20 20 20 21 21 20 24 21 20 19 17 16 14 12 8 6 4 4 4
3 2 2 0 2 2 11 5 6 4 9 10 12 15 15 12 9 8 10 12 12 12 12 12 15 18 20 19 18 18 19 23 21 19 18 18 16 15 11 5 3 2 5 6
3 4 2 5 3 3 13 4 10 7 8 8 11 13 13 14 14 10 11 11 13 12 12 13 13 16 19 19 18 17 19 23 23 20 18 16 14 13 5 0 5 4 7 6
4 3 3 3 2 2 4 9 9 7 6 7 10 12 13 13 11 10 9 11 12 12 12 12 13 14 16 17 15 14 17 18 21 21 21 17 13 10 8 6 7 7 7 6
2 3 3 5 10 9 4 5 8 6 5 5 5 5 9 8 9 8 9 10 11 11 13 13 12 12 13 15 16 15 15 17 14 12 13 12 10 9 7 8 7 7 6 7
9 6 6 5 3 2 1 3 5 8 10 8 3 3 6 7 6 7 9 11 11 11 12 13 14 13 15 16 17 16 12 9 9 12 13 9 7 8 7 6 6 6 7 8
Wind_Direction
5 283 258 267 259 267 275 273 271 274 281 302 279 286 294 262 238 236 237 230 223 221 214 208 206 205 203 204 202 198 196 199 200 200 197 196 200 203 210 211 219 223 226 230
289 275 296 275 265 261 260 264 270 288 265 269 277 276 261 268 273 254 238 231 222 219 207 206 204 201 203 203 201 197 199 200 200 205 201 203 206 211 214 218 220 222 226 232
257 269 302 278 269 253 248 249 260 251 294 282 283 273 265 249 252 251 252 243 228 214 206 204 202 202 201 203 201 199 200 202 200 204 206 207 210 213 213 215 217 220 222 229
275 281 274 277 262 261 269 253 255 256 268 262 237 267 254 244 247 237 236 238 233 217 209 209 210 202 199 204 203 203 204 204 206 210 210 214 216 217 217 217 215 214 216 218
283 295 297 283 273 255 255 264 261 257 248 287 272 265 264 246 245 247 232 226 225 220 206 204 214 209 201 203 204 205 206 207 209 211 214 216 220 222 222 217 210 206 200 185
265 275 282 263 272 261 271 288 272 257 249 253 260 248 272 248 249 240 234 220 219 210 203 204 213 207 202 203 205 207 208 209 211 216 218 219 222 223 218 205 193 184 175 194
321 288 254 236 260 237 250 269 279 235 219 256 255 253 247 251 240 232 218 208 210 207 191 200 205 205 204 203 205 208 211 212 214 218 221 224 223 220 212 199 177 180 179 179
335 325 214 175 248 262 207 214 252 291 245 272 196 247 252 255 292 277 262 215 201 197 198 203 203 202 200 205 206 207 210 213 215 219 222 222 220 209 182 175 175 167 174 163
308 278 299 269 224 193 135 209 257 266 259 273 256 246 283 328 320 313 281 247 204 187 191 196 194 202 195 202 201 206 210 213 217 219 215 211 199 187 178 164 166 159 150 133
281 292 291 326 240 224 225 345 271 211 248 234 231 240 243 337 316 312 323 232 192 181 180 188 192 198 205 195 198 209 209 205 207 206 204 192 177 169 164 154 154 145 141 164
285 249 298 297 234 293 213 248 218 259 244 257 270 238 46 295 292 284 302 209 164 163 173 181 181 189 190 191 200 205 203 200 192 184 167 159 158 159 154 145 140 150 160 160
306 290 282 287 315 303 286 275 238 259 334 250 306 284 20 320 305 260 105 101 143 154 165 176 179 182 183 186 187 198 190 185 173 160 155 161 153 152 146 139 147 158 163 152
344 290 296 295 180 197 301 267 245 276 249 247 257 1 348 335 322 359 107 108 120 143 153 167 170 173 175 173 173 172 162 163 151 145 155 153 151 147 143 154 158 155 154 152
299 256 284 300 301 302 297 307 297 259 282 321 9 300 330 353 359 22 86 113 115 125 140 154 158 158 157 156 156 150 152 151 155 154 151 150 146 145 159 159 157 156 153 155
338 267 279 288 284 282 308 306 312 313 304 335 326 328 353 343 353 360 92 112 122 130 137 142 147 146 153 150 151 149 147 154 154 152 148 149 149 167 157 157 158 154 155 160
335 275 314 287 251 299 308 355 357 351 347 342 311 360 351 353 17 57 83 102 110 128 139 147 146 155 155 150 143 151 152 154 159 157 153 152 166 157 158 157 154 157 162 162
295 321 312 273 324 318 82 357 352 344 10 319 342 333 337 356 10 21 70 94 117 132 144 152 156 157 148 149 153 154 155 160 160 157 157 158 158 159 157 154 156 165 168 168
280 307 284 312 325 26 357 34 34 339 15 1 342 345 351 359 16 28 31 38 109 138 153 160 160 152 153 152 150 154 158 159 154 157 160 159 160 160 158 162 168 168 164 174
233 281 305 315 305 299 357 13 17 353 14 1 339 348 354 33 1 23 20 37 25 112 147 155 156 155 153 153 156 155 152 158 160 160 160 160 162 165 165 163 166 162 165 167
236 232 276 324 317 314 14 326 322 242 12 6 359 357 346 28 53 358 6 52 111 117 148 164 170 167 164 159 158 155 157 162 162 163 165 166 165 166 166 158 160 154 172 225
282 229 254 286 279 292 301 312 306 60 335 337 357 4 13 43 31 356 39 104 121 131 136 153 169 176 174 169 167 165 164 165 166 168 169 169 171 172 162 155 149 146 235 253
218 228 245 164 260 285 5 1 50 328 331 330 2 16 24 29 29 52 79 99 110 122 129 141 164 177 182 182 177 173 167 165 171 176 175 176 175 170 158 135 128 162 256 270
253 229 304 216 263 10 340 355 331 326 303 340 359 8 21 35 33 45 69 91 104 115 127 135 150 169 182 186 188 184 171 174 173 175 177 170 170 170 163 328 299 263 260 278
235 233 248 311 260 272 341 349 348 320 294 315 330 352 9 34 43 58 75 94 106 115 127 134 146 156 169 179 183 187 181 174 178 176 177 175 173 192 215 244 273 261 272 284
255 179 207 260 286 301 83 24 7 3 350 315 328 2 17 27 53 65 80 93 102 113 124 127 131 140 158 167 171 170 180 185 193 190 190 191 173 191 215 249 247 262 284 300
192 198 203 220 212 235 221 19 27 34 38 30 7 0 14 36 67 85 100 106 111 113 117 123 122 134 143 153 161 160 164 157 158 162 156 164 189 203 227 242 258 279 293 303
Height
1525 1522 1515 1512 1511 1508 1506 1504 1501 1497 1494 1496 1487 1482 1478 1476 1476 1473 1472 1475 1477 1480 1486 1490 1493 1496 1501 1507 1509 1514 1517 1522 1527 1530 1534 1537 1540 1543 1546 1548 1550 1552 1553 1554
1523 1514 1509 1511 1510 1508 1506 1506 1505 1504 1496 1492 1486 1474 1479 1480 1473 1469 1467 1468 1469 1475 1478 1480 1486 1491 1496 1501 1506 1510 1514 1517 1523 1528 1532 1535 1538 1539 1542 1545 1546 1548 1549 1550
1526 1508 1509 1511 1507 1504 1500 1501 1501 1504 1500 1492 1487 1471 1469 1468 1469 1467 1463 1462 1462 1464 1469 1473 1480 1483 1489 1496 1500 1505 1509 1514 1519 1522 1528 1532 1534 1536 1537 1539 1541 1543 1544 1546
1518 1511 1510 1506 1503 1501 1500 1495 1496 1497 1500 1490 1476 1451 1450 1448 1449 1451 1451 1452 1457 1460 1462 1465 1471 1480 1481 1489 1496 1500 1505 1509 1514 1519 1523 1526 1529 1530 1531 1533 1536 1538 1540 1541
1513 1509 1507 1503 1496 1498 1496 1494 1493 1491 1491 1495 1483 1469 1434 1438 1435 1433 1435 1440 1447 1453 1455 1457 1463 1472 1475 1484 1490 1495 1500 1504 1509 1514 1519 1522 1523 1526 1527 1529 1531 1533 1535 1539
1513 1508 1508 1499 1494 1495 1493 1492 1487 1485 1483 1482 1465 1468 1421 1430 1423 1423 1426 1431 1438 1443 1448 1451 1458 1464 1469 1477 1484 1490 1495 1499 1504 1509 1513 1515 1517 1520 1520 1522 1525 1530 1533 1535
1505 1498 1500 1500 1495 1491 1493 1495 1487 1481 1482 1462 1441 1442 1419 1411 1411 1410 1415 1420 1428 1435 1438 1443 1449 1455 1464 1472 1479 1485 1490 1494 1498 1503 1506 1510 1512 1514 1515 1517 1523 1529 1532 1535
1512 1500 1494 1494 1492 1487 1490 1492 1479 1464 1453 1438 1435 1436 1418 1413 1414 1413 1408 1406 1407 1417 1427 1434 1442 1449 1457 1463 1475 1479 1484 1488 1492 1497 1500 1502 1505 1508 1511 1517 1521 1524 1530 1534
1521 1498 1491 1491 1492 1494 1487 1484 1476 1473 1459 1460 1428 1418 1411 1412 1410 1411 1405 1403 1403 1409 1415 1423 1436 1444 1447 1460 1468 1473 1478 1483 1487 1491 1493 1494 1498 1506 1506 1512 1521 1525 1530 1533
1523 1510 1489 1487 1490 1485 1485 1486 1472 1467 1446 1435 1413 1415 1398 1416 1411 1410 1403 1395 1401 1404 1412 1416 1425 1433 1447 1453 1459 1466 1472 1473 1480 1484 1489 1492 1499 1504 1510 1511 1520 1523 1529 1536
1522 1515 1492 1490 1481 1475 1482 1474 1474 1470 1447 1423 1413 1400 1428 1423 1416 1412 1404 1398 1400 1401 1408 1413 1418 1432 1442 1450 1450 1464 1468 1470 1475 1482 1486 1490 1502 1509 1512 1512 1519 1526 1532 1536
1522 1515 1500 1481 1476 1476 1480 1474 1470 1459 1433 1432 1426 1409 1422 1422 1416 1408 1402 1403 1399 1401 1407 1413 1422 1431 1438 1444 1447 1459 1465 1470 1475 1479 1488 1500 1501 1509 1512 1518 1524 1529 1534 1536
1523 1511 1499 1472 1476 1476 1474 1469 1464 1457 1449 1425 1421 1411 1420 1422 1418 1410 1404 1404 1404 1403 1408 1414 1422 1430 1434 1441 1450 1460 1465 1475 1478 1480 1495 1500 1505 1510 1516 1523 1527 1530 1534 1537
1524 1513 1505 1496 1487 1484 1474 1465 1457 1455 1442 1430 1427 1426 1421 1417 1413 1407 1407 1408 1410 1410 1412 1416 1422 1428 1437 1444 1450 1458 1467 1473 1483 1488 1493 1502 1509 1513 1519 1524 1527 1531 1533 1537
1522 1513 1505 1498 1488 1483 1476 1468 1458 1451 1447 1434 1433 1427 1423 1422 1418 1417 1415 1411 1413 1416 1419 1421 1427 1433 1442 1446 1456 1463 1468 1478 1483 1491 1496 1505 1511 1516 1519 1524 1528 1532 1534 1536
1520 1510 1505 1491 1481 1477 1473 1465 1458 1454 1451 1443 1439 1431 1430 1425 1422 1421 1420 1417 1420 1421 1423 1427 1430 1440 1446 1452 1456 1466 1475 1482 1488 1493 1501 1506 1513 1516 1521 1525 1528 1532 1535 1537
1519 1514 1506 1484 1474 1468 1465 1465 1466 1464 1463 1459 1441 1442 1435 1427 1426 1426 1425 1427 1424 1426 1429 1432 1439 1446 1447 1454 1462 1470 1477 1485 1490 1497 1502 1508 1514 1518 1523 1525 1528 1533 1535 1538
1519 1514 1502 1489 1477 1463 1466 1469 1471 1469 1467 1463 1456 1449 1444 1439 1435 1431 1430 1431 1434 1437 1440 1442 1446 1451 1458 1464 1468 1475 1482 1487 1493 1500 1505 1509 1514 1518 1521 1525 1529 1532 1534 1537
1518 1515 1501 1497 1488 1472 1464 1468 1473 1473 1471 1467 1459 1452 1449 1446 1443 1439 1437 1437 1438 1441 1445 1449 1452 1457 1462 1467 1473 1479 1485 1491 1496 1502 1507 1512 1516 1519 1522 1525 1530 1533 1535 1535
1516 1515 1511 1502 1494 1477 1474 1473 1473 1473 1469 1467 1464 1457 1452 1448 1449 1450 1447 1445 1445 1446 1448 1453 1458 1462 1467 1471 1476 1481 1487 1493 1498 1503 1509 1512 1516 1520 1524 1526 1531 1532 1533 1533
1511 1508 1504 1499 1494 1482 1478 1471 1469 1466 1484 1472 1468 1462 1458 1456 1460 1458 1453 1451 1450 1453 1455 1458 1462 1466 1471 1475 1480 1484 1489 1495 1500 1505 1509 1513 1518 1521 1524 1528 1530 1530 1532 1533
1508 1504 1500 1506 1503 1482 1481 1470 1472 1483 1479 1478 1474 1468 1464 1463 1462 1459 1456 1454 1453 1455 1457 1461 1465 1470 1474 1479 1483 1487 1491 1496 1501 1507 1510 1514 1518 1521 1525 1527 1527 1528 1530 1532
1509 1501 1497 1498 1484 1481 1481 1480 1480 1479 1480 1479 1475 1472 1469 1465 1462 1461 1459 1458 1457 1459 1461 1465 1469 1473 1478 1481 1485 1489 1493 1498 1500 1507 1510 1513 1518 1522 1524 1524 1525 1528 1530 1529
1504 1503 1501 1496 1483 1482 1484 1482 1480 1479 1478 1476 1475 1473 1470 1467 1465 1464 1465 1464 1464 1465 1467 1469 1473 1476 1479 1484 1487 1494 1497 1499 1504 1506 1510 1514 1518 1520 1522 1523 1526 1527 1527 1525
1502 1501 1498 1494 1484 1481 1482 1483 1481 1479 1477 1476 1475 1474 1472 1471 1467 1467 1467 1468 1469 1471 1474 1475 1476 1478 1482 1485 1490 1493 1497 1500 1503 1506 1510 1513 1516 1518 1521 1522 1523 1524 1524 1522
1493 1488 1487 1482 1482 1482 1482 1482 1482 1481 1478 1477 1476 1474 1473 1471 1470 1469 1469 1471 1473 1475 1476 1478 1480 1483 1484 1487 1491 1495 1499 1502 1504 1508 1512 1513 1515 1519 1520 1521 1522 1521 1521 1519